Regional Weather Roundup
Issued by NWS Charleston, SC

Current Version | Previous Version | Text Only | Print | Product List | Glossary Off
Versions: 1 2 3 4 5 6 7 8 9 10 11 12 13 14 15 16 17 18 19 20 21 22 23 24 25 26 27 28 29 30 31 32 33 34 35 36 37 38 39 40 41 42 43 44 45 46 47 48 49 50

000
ASUS42 KCHS 190025
RWRCHS

REGIONAL WEATHER ROUNDUP
NATIONAL WEATHER SERVICE CHARLESTON SC
700 PM EST THU DEC 18 2014

NOTE: "FAIR" INDICATES FEW OR NO CLOUDS BELOW 12,000 FEET WITH NO
SIGNIFICANT WEATHER AND/OR OBSTRUCTIONS TO VISIBILITY.

NOT ALL STATIONS ARE QUALITY CONTROLLED BY THE NATIONAL
WEATHER SERVICE. USE DATA WITH CAUTION...ESPECIALLY
DEWPOINT OBSERVATIONS.

SCZ027-030-031-034>040-042>050-190100-
...SOUTHEAST SOUTH CAROLINA...

CITY           SKY/WX    TMP DP  RH WIND       PRES   REMARKS
N CHARLESTON   CLEAR     52  45  77 E5        30.09R
6HR MIN TEMP:  51; 6HR MAX TEMP:  63;

WATERFRONT PRK   N/A     54 N/A N/A NE5         N/A
MOUNT PLEASANT FAIR      46  46 100 CALM      30.10R
PINOPOLIS        N/A     55  45  67 VRB2      29.99F
MONCKS CORNER  FAIR      48  43  81 CALM      30.10R
SUMMERVILLE    NOT AVBL
BEAUFORT MCAS  PTCLDY    53  47  79 CALM      30.10R
6HR MIN TEMP:  53; 6HR MAX TEMP:  64;

BEAUFORT ARPT  FAIR      50  48  93 CALM      30.10R
HILTON HEAD IS CLEAR     48  46  93 CALM      30.12R
WALTERBORO     CLEAR     46  45  93 CALM      30.10S
ALLENDALE      MOCLDY    48  45  87 CALM      30.09R

...SOUTHERN MIDLANDS AND PEE DEE...

CITY           SKY/WX    TMP DP  RH WIND       PRES   REMARKS
GEORGETOWN     NOT AVBL
KINGSTREE      NOT AVBL
ORANGEBURG     CLEAR     49  41  74 CALM      30.09R
6HR MIN TEMP:  48; 6HR MAX TEMP:  62;

BARNWELL         N/A     46  43  87 CALM      30.10R
AIKEN          FAIR      45  41  87 CALM      30.12R
MANNING        NOT AVBL
COLUMBIA       PTCLDY    49  38  65 CALM      30.08S
6HR MIN TEMP:  47; 6HR MAX TEMP:  61;

SUMTER         PTCLDY    45  36  69 NE2       30.08S
6HR MIN TEMP:  45; 6HR MAX TEMP:  59;

FLORENCE       CLEAR     46  35  65 CALM      30.10R
6HR MIN TEMP:  45; 6HR MAX TEMP:  59;

MYRTLE BEACH   CLEAR     45  37  76 CALM      30.10S
N MYRTLE BEACH CLEAR     43  40  89 CALM      30.10S
6HR MIN TEMP:  43; 6HR MAX TEMP:  58;


$$

GAZ063-065-086>088-099>101-113>116-118-119-134>141-150-190100-
...SOUTHEAST GEORGIA...

CITY           SKY/WX    TMP DP  RH WIND       PRES   REMARKS
SAVANNAH ARPT  MOCLDY    51  40  65 W3        30.10R
6HR MIN TEMP:  50; 6HR MAX TEMP:  64;

HUNTER AAF     CLEAR     51  44  79 CALM      30.08R
6HR MIN TEMP:  50; 6HR MAX TEMP:  64;

FORT STEWART   CLEAR     48  42  78 CALM      30.08R
6HR MIN TEMP:  48; 6HR MAX TEMP:  65;

STATESBORO     PTCLDY    45  42  90 CALM      30.09S
SYLVANIA       PTCLDY    48  44  84 CALM      30.11R
CLAXTON        FAIR      45  43  93 CALM      30.10S

...CSRA...CENTRAL AND FAR SOUTHEAST GEORGIA...

CITY           SKY/WX    TMP DP  RH WIND       PRES   REMARKS
THOMSON        CLEAR     47  44  88 CALM      30.14R
AUGUSTA-BUSH   CLEAR     46  38  73 N3        30.09R
6HR MIN TEMP:  46; 6HR MAX TEMP:  62;

AUGUSTA-DANIEL CLEAR     54  41  61 NW5       30.09R
SWAINSBORO     MOCLDY    50  45  81 CALM      30.11R
VIDALIA        CLEAR     50  41  71 CALM      30.11R
EASTMAN        FAIR      46  40  79 CALM      30.14R
HAZLEHURST     FAIR      51  42  70 CALM      30.10R
ALMA           PTCLDY    49  40  71 CALM      30.10R
6HR MIN TEMP:  49; 6HR MAX TEMP:  66;

WAYCROSS       CLEAR     50  44  80 SW3       30.12R
JESUP          FAIR      48  45  87 CALM      30.11R
BAXLEY         FAIR      50  43  76 CALM      30.10R
BRUNSWICK      CLEAR     50  43  76 CALM      30.11S
SAINT SIMONS   CLEAR     54  44  69 W6        30.10R
6HR MIN TEMP:  53; 6HR MAX TEMP:  62;


$$

SCZ027-028-034-036>038-045-046-048>050-GAZ119-141-190100-
...LAKE AND SUPPLEMENTAL COASTAL OBSERVATIONS...

STATION/POSITION TIME  TEMP    WIND        PRES    WAVE   SWELL
                       AIR SEA DIR/SP/G            HT/PER HT/PER/DIR
                 (UTC) (F)     (DEG/KT/KT) (MB)    (FT/S) (FT/S/D)
UPR LAKE MARION  NOT AVBL
WINYAH BAY       0000   46     320/  2     1018.0S
LAKE MURRAY      2300   52        CALM     1018.3S
ACE BASIN NERRS  0000   48        CALM     1018.0S
FORT PULASKI     0000   52 57  190/  3/  3 1019.6R
SAPELO ISLAND    0000   49        CALM     1019.0S

$$

ANZ835-935-AMZ111-154-330-350-352-354-370-450-454-472-190100-
...C-MAN AND BUOY OBSERVATIONS...

STATION/POSITION TIME  TEMP    WIND        PRES    WAVE   SWELL
                       AIR SEA DIR/SP/G            HT/PER HT/PER/DIR
                 (UTC) (F)     (DEG/KT/KT) (MB)    (FT/S) (FT/S/D)
BUOY 41004       0000   60 72  330/  4/  8 1018.3R   2/10   2/10
BUOY 41008       0000   57 57  210/  4/  4 1019.1R   1/10   2/120/10
FOLLY BEACH CMAN 0000   55      90/  3/  3 1019.3R
CAPERS NEARSHORE 2300   54      70/ 10/ 12   N/A
FRIPP NEARSHORE  NOT AVBL


STATION/POSITION TIME  TEMP    WIND        PRES    WAVE   SWELL
                       AIR SEA DIR/SP/G            HT/PER HT/PER/DIR
                 (UTC) (F)     (DEG/KT/KT) (MB)    (FT/S) (FT/S/D)
5E ST. MARYS GA  0000      61                N/A     1/11
FRYING PAN BUOY  0000   56 65   40/  6/  8 1019.2F   2/ 4   2/100/ 8
BUOY 41025       0000   47                 1019.7R   3/ 7
CAPE LOOKOUT NC  0000   48      20/  5/  6 1019.4R
BUOY 41002       NOT AVBL
BUOY 41010       0000   70 76  290/  6/  8 1018.8R   2/10   2/ 80/10
ST AUGUSTINE FL  0000   57     240/  4/  4 1020.3R


$$


USA.gov is the U.S. government's official web portal to all federal, state and local government web resources and services.